Location: Camerons Lookout
(40.9833°S, 175.9333°E)
Time: 17:34:25
(UTC+00:00)

Lacrosse 5 rocket - Pass Details

Date: 14 January 2026
Orbit: 401 x 481 km, 57.0° (Epoch: 16 February)

Event Time Altitude Azimuth Distance (km) Brightness Sun altitude
Rises 08:41:07 0° 213° (SSW) 2,354 6.1 -8.9°
Reaches altitude 10° 08:44:03 10° 184° (S) 1,489 4.2 -9.3°
Maximum altitude 08:45:47 13° 152° (SSE) 1,296 3.4 -9.6°
Drops below altitude 10° 08:47:31 10° 121° (ESE) 1,490 3.3 -9.9°
Enters shadow 08:49:09 - 102° (ESE) 1,922 3.7 -10.1°
